Nederland, TX

10:51 AM CST on February 20, 2017 (GMT -0600)
Southeast Texas Regional

Weather History for KBPT - February, 2014

Change the Weather History Date:

Sunday, February 23, 2014

  Actual Average Record
Temperature  
Mean Temperature 69 °F 58 °F  
Max Temperature 77 °F 67 °F 82 °F (1977)
Min Temperature 60 °F 48 °F 29 °F (1964)
Degree Days  
Heating Degree Days 0 8  
Month to date heating degree days 266 232  
Since 1 July heating degree days 1422 1175  
Cooling Degree Days 4 1  
Month to date cooling degree days 24 11  
Year to date cooling degree days 24 22  
Growing Degree Days 18 (Base 50)    
Moisture  
Dew Point 63 °F    
Average Humidity 87    
Maximum Humidity 100    
Minimum Humidity 74    
Precipitation  
Precipitation 0.10 in 0.12 in 2.97 in (1985)
Month to date precipitation 2.39 2.99  
Year to date precipitation 3.66 8.25  
Snow  
Snow 0.00 in 0.00 in T in (1968)
Month to date snowfall T 0.0  
Since 1 July snowfall 0.3 T  
Snow Depth 0.00 in    
Sea Level Pressure  
Sea Level Pressure 29.96 in    
Wind  
Wind Speed 5 mph (East)    
Max Wind Speed 10 mph    
Max Gust Speed 16 mph    
Visibility 4 miles    
Events Fog , Rain    
T = Trace of Precipitation, MM = Missing Value Source: NWS Daily Summary

Daily Weather History Graph

Daily Weather History Graph

Search for Another Location

Airport or City:

Trip Planner

Search our weather history database for the weather conditions in past years. The results will help you decide how hot, cold, wet, or windy it might be!

Date:

Astronomy

Feb. 23, 2014 Rise Set
Actual Time 6:48 AM CST 6:10 PM CST
Civil Twilight 6:24 AM CST 6:35 PM CST
Nautical Twilight 5:56 AM CST 7:03 PM CST
Astronomical Twilight 5:28 AM CST 7:30 PM CST
Moon 1:34 AM CST (2/23) 12:26 PM CST (2/23)
Length of Visible Light 12h 11m
Length of Day
11h 22m
Last Quarter, 38% of the Moon is Illuminated
Feb 23
Last Quarter
Mar 1
New
Mar 8
First Quarter
Mar 16
Full
Mar 23
Last Quarter

Hourly Weather History & Observations

Time (CST) Temp. Dew Point Humidity Pressure Visibility Wind Dir Wind Speed Gust Speed Precip Events Conditions
12:06 AM 61.0 °F 57.9 °F 90% 29.96 in 10.0 mi East 5.8 mph - N/A   Overcast
12:53 AM 61.0 °F 57.9 °F 90% 29.95 in 10.0 mi East 5.8 mph - N/A   Overcast
1:53 AM 61.0 °F 59.0 °F 93% 29.94 in 2.5 mi East 5.8 mph - N/A   Overcast
2:00 AM 61.0 °F 59.0 °F 93% 29.94 in 2.5 mi East 6.9 mph - N/A   Overcast
2:53 AM 61.0 °F 59.0 °F 93% 29.92 in 2.5 mi East 5.8 mph - N/A   Overcast
3:19 AM 61.0 °F 59.0 °F 93% 29.92 in 3.0 mi East 5.8 mph - N/A   Overcast
3:42 AM 61.0 °F 60.1 °F 97% 29.92 in 1.8 mi East 6.9 mph - 0.01 in Rain Rain
3:51 AM 60.8 °F 60.8 °F 100% 29.92 in 2.5 mi East 6.9 mph - 0.01 in Rain Light Rain
3:53 AM 61.0 °F 60.1 °F 97% 29.92 in 3.0 mi East 5.8 mph - 0.01 in Rain Light Rain
4:01 AM 61.0 °F 60.1 °F 97% 29.92 in 2.5 mi East 6.9 mph - 0.03 in Rain Rain
4:11 AM 61.0 °F 60.1 °F 97% 29.92 in 3.0 mi East 5.8 mph - 0.04 in Rain Light Rain
4:26 AM 61.0 °F 60.1 °F 97% 29.92 in 4.0 mi East 5.8 mph - 0.05 in Rain Rain
4:53 AM 61.0 °F 60.1 °F 97% 29.92 in 7.0 mi East 4.6 mph - 0.05 in   Overcast
5:20 AM 61.0 °F 60.1 °F 97% 29.92 in 2.5 mi East 4.6 mph - N/A   Overcast
5:53 AM 62.1 °F 61.0 °F 96% 29.93 in 1.5 mi East 3.5 mph - N/A   Overcast
6:45 AM 62.1 °F 61.0 °F 96% 29.94 in 0.2 mi ENE 3.5 mph - N/A Fog Fog
6:53 AM 62.1 °F 61.0 °F 96% 29.94 in 0.2 mi ENE 3.5 mph - N/A Fog Fog
7:53 AM 63.0 °F 62.1 °F 97% 29.96 in 0.2 mi NE 3.5 mph - N/A Fog Fog
8:53 AM 64.0 °F 63.0 °F 96% 29.97 in 3.0 mi East 4.6 mph - 0.03 in   Overcast
9:25 AM 64.0 °F 63.0 °F 96% 29.98 in 0.5 mi Calm Calm - N/A Fog Fog
9:53 AM 66.0 °F 64.9 °F 96% 29.99 in 0.5 mi Calm Calm - 0.00 in Fog , Rain Rain
10:00 AM 66.0 °F 64.9 °F 96% 29.98 in 1.8 mi South 3.5 mph - 0.01 in Rain Light Rain
10:20 AM 66.9 °F 66.0 °F 97% 29.99 in 1.2 mi SSW 3.5 mph - 0.01 in   Overcast
10:49 AM 68.0 °F 66.2 °F 94% 29.99 in 1.5 mi West 3.5 mph - 0.01 in Rain Light Rain
10:53 AM 68.0 °F 66.9 °F 96% 29.99 in 1.5 mi West 3.5 mph - 0.01 in Rain Light Rain
11:53 AM 70.0 °F 66.9 °F 90% 29.98 in 1.5 mi West 6.9 mph - 0.00 in   Overcast
12:00 PM 70.0 °F 68.0 °F 93% 29.98 in 6.0 mi West 5.8 mph - N/A   Overcast
12:32 PM 72.0 °F 68.0 °F 87% 29.97 in 7.0 mi WSW 6.9 mph - N/A   Overcast
12:53 PM 73.0 °F 68.0 °F 84% 29.96 in 7.0 mi West 5.8 mph - N/A   Overcast
1:53 PM 75.0 °F 68.0 °F 79% 29.93 in 9.0 mi West 9.2 mph - N/A   Mostly Cloudy
2:53 PM 75.0 °F 68.0 °F 79% 29.93 in 9.0 mi NW 9.2 mph - N/A   Mostly Cloudy
3:00 PM 75.0 °F 66.9 °F 76% 29.93 in 9.0 mi NNW 8.1 mph - N/A   Mostly Cloudy
3:17 PM 75.0 °F 66.9 °F 76% 29.92 in 9.0 mi NNW 5.8 mph - N/A   Mostly Cloudy
3:27 PM 77.0 °F 66.9 °F 71% 29.92 in 9.0 mi North 6.9 mph - N/A   Scattered Clouds
3:53 PM 75.0 °F 66.0 °F 73% 29.92 in 10.0 mi NW 4.6 mph - N/A   Partly Cloudy
4:53 PM 75.9 °F 66.0 °F 71% 29.92 in 10.0 mi North 3.5 mph - N/A   Scattered Clouds
5:53 PM 73.0 °F 66.0 °F 79% 29.94 in 10.0 mi NE 8.1 mph - N/A   Mostly Cloudy
6:11 PM 72.0 °F 66.0 °F 81% 29.94 in 10.0 mi NNE 6.9 mph - N/A   Mostly Cloudy
6:53 PM 71.1 °F 66.0 °F 84% 29.95 in 10.0 mi NE 5.8 mph - N/A   Overcast
7:34 PM 68.0 °F 64.0 °F 87% 29.97 in 8.0 mi SE 4.6 mph - N/A   Mostly Cloudy
7:53 PM 68.0 °F 64.9 °F 90% 29.97 in 8.0 mi East 4.6 mph - N/A   Scattered Clouds
8:53 PM 68.0 °F 64.9 °F 90% 30.00 in 7.0 mi ENE 4.6 mph - N/A   Mostly Cloudy
9:53 PM 66.9 °F 64.9 °F 93% 30.01 in 5.0 mi East 3.5 mph - N/A   Overcast
10:00 PM 66.0 °F 64.0 °F 93% 30.01 in 4.0 mi ESE 3.5 mph - N/A   Scattered Clouds
10:13 PM 64.9 °F 64.0 °F 97% 30.01 in 2.5 mi East 3.5 mph - N/A   Mostly Cloudy
10:20 PM 66.0 °F 64.0 °F 93% 30.01 in 3.0 mi East 4.6 mph - N/A   Mostly Cloudy
10:40 PM 64.9 °F 64.0 °F 97% 30.01 in 1.5 mi East 3.5 mph - N/A   Mostly Cloudy
10:43 PM 64.9 °F 64.0 °F 97% 30.00 in 0.8 mi ESE 3.5 mph - N/A   Mostly Cloudy
10:53 PM 63.0 °F 63.0 °F 100% 30.00 in 0.2 mi SSE 4.6 mph - N/A Fog Fog
11:00 PM 62.1 °F 61.0 °F 96% 30.00 in 0.2 mi SSE 4.6 mph - N/A Fog Fog
11:13 PM 63.0 °F 62.1 °F 97% 30.00 in 0.2 mi SE 4.6 mph - N/A Fog Fog
11:53 PM 64.0 °F 63.0 °F 96% 30.00 in 0.5 mi Calm Calm - N/A Fog Fog